ISS1262 LIEO-LFKF

Flight info

Callsign ISS1262
Flight time N/A
Altitude 14000
Route OLBEK DCT ASKAG
Aircraft B739/M-SDE2E3FGHIRWXY/LB1

Departure

Time 2026-05-04 18:10
Airport Olbia Costa Smeralda Airport (LIEO)

Arrival

Time N/A
Airport Figari Sud-Corse Airport (LFKF)
Time Latitude Longitude Altitude Speed Heading
2026-05-04 17:46 40.90114 9.51394 49 ft 0 kts 24°
2026-05-04 18:01 40.90116 9.51396 49 ft 1 kts 31°
2026-05-04 18:02 40.90109 9.51461 49 ft 6 kts 149°
2026-05-04 18:02 40.90067 9.51489 49 ft 9 kts 154°
2026-05-04 18:02 40.90003 9.51518 49 ft 16 kts 176°
2026-05-04 18:02 40.89912 9.51454 49 ft 16 kts 231°
2026-05-04 18:03 40.89851 9.51341 49 ft 16 kts 237°
2026-05-04 18:03 40.89794 9.51226 49 ft 16 kts 236°
2026-05-04 18:03 40.89725 9.51096 49 ft 20 kts 234°
2026-05-04 18:03 40.89648 9.50951 49 ft 21 kts 236°
2026-05-04 18:04 40.89573 9.50805 49 ft 20 kts 236°
2026-05-04 18:04 40.89498 9.50662 49 ft 20 kts 236°
2026-05-04 18:04 40.89379 9.50451 49 ft 10 kts 219°
2026-05-04 18:05 40.89316 9.50454 49 ft 10 kts 147°
2026-05-04 18:05 40.89274 9.50518 49 ft 10 kts 115°
2026-05-04 18:05 40.89267 9.50602 49 ft 9 kts 72°
2026-05-04 18:05 40.89306 9.50663 49 ft 11 kts 331°
2026-05-04 18:06 40.89386 9.50492 49 ft 10 kts 275°
2026-05-04 18:06 40.89350 9.50446 49 ft 0 kts 175°
2026-05-04 18:09 40.89273 9.50511 49 ft 10 kts 102°
2026-05-04 18:09 40.89515 9.51103 49 ft 114 kts 55°
2026-05-04 18:10 40.90077 9.52171 108 ft 185 kts 56°
2026-05-04 18:10 40.90623 9.53213 2053 ft 109 kts 57°
2026-05-04 18:10 40.90904 9.53727 2112 ft 141 kts 54°
2026-05-04 18:10 40.91678 9.55091 1881 ft 203 kts 55°
2026-05-04 18:11 40.92493 9.56600 2820 ft 208 kts 54°
2026-05-04 18:11 40.93356 9.58229 3537 ft 228 kts 53°
2026-05-04 18:11 40.94310 9.60020 4249 ft 250 kts 53°
2026-05-04 18:11 40.95325 9.61927 4996 ft 266 kts 54°
2026-05-04 18:12 40.96411 9.63972 4932 ft 276 kts 53°
2026-05-04 18:12 40.97520 9.66071 4666 ft 271 kts 53°
2026-05-04 18:12 40.98658 9.67964 4917 ft 259 kts 43°
2026-05-04 18:12 41.00102 9.69396 5047 ft 258 kts 24°
2026-05-04 18:13 41.01733 9.70334 4678 ft 258 kts 18°
2026-05-04 18:13 41.03426 9.71202 4272 ft 260 kts 20°
2026-05-04 18:13 41.06608 9.73092 4047 ft 239 kts 22°
2026-05-04 18:14 41.08049 9.74016 4051 ft 224 kts 23°
2026-05-04 18:14 41.09415 9.74893 4065 ft 210 kts 22°
2026-05-04 18:14 41.10705 9.75698 4063 ft 201 kts 21°
2026-05-04 18:15 41.13217 9.77261 4057 ft 202 kts 22°
2026-05-04 18:15 41.15818 9.78885 4430 ft 222 kts 22°
2026-05-04 18:15 41.17156 9.79719 5611 ft 214 kts 22°
2026-05-04 18:16 41.18471 9.80540 6657 ft 211 kts 21°
2026-05-04 18:16 41.19794 9.81371 7551 ft 215 kts 22°
2026-05-04 18:16 41.21127 9.82217 8460 ft 217 kts 22°
2026-05-04 18:17 41.23885 9.83971 9642 ft 224 kts 23°
2026-05-04 18:17 41.25288 9.84843 9675 ft 224 kts 19°
2026-05-04 18:17 41.28249 9.85041 9674 ft 215 kts 343°
2026-05-04 18:18 41.29704 9.84632 9665 ft 213 kts 345°
2026-05-04 18:18 41.31175 9.84288 9666 ft 215 kts 347°
2026-05-04 18:18 41.32657 9.83995 9665 ft 215 kts 348°
2026-05-04 18:18 41.34126 9.83717 9668 ft 215 kts 348°
2026-05-04 18:19 41.37137 9.83133 9135 ft 226 kts 348°
2026-05-04 18:19 41.38707 9.82825 8720 ft 233 kts 348°
2026-05-04 18:19 41.40341 9.82500 8300 ft 239 kts 348°
2026-05-04 18:20 41.41993 9.82177 7888 ft 244 kts 348°
2026-05-04 18:20 41.43689 9.81845 7466 ft 249 kts 348°
2026-05-04 18:20 41.45410 9.81508 7044 ft 253 kts 348°